Location: Unspecified
(58.7730°N, 5.8460°E)
Time: 13:42:29
(UTC+02:00)

CZ-3 Stage 3 - Visible Passes

Search period start: 24 April 2014 00:00
Search period end: 04 May 2014 00:00
Orbit: 473 x 34783 km, 30.6° (Epoch: 23 April)

Date Brightness Start Highest point End Pass type
(mag) Time Alt. Az. Time Alt. Az. Time Alt. Az.
25 Apr 6.2 03:42:52 12° SSW 03:48:07 14° S 04:03:17 10° SSE visible
28 Apr 6.2 03:41:51 11° SSW 03:47:17 13° S 04:00:58 10° SSE visible
01 May 6.3 03:40:52 11° SSW 03:46:27 12° S 03:58:15 10° SSE visible
